Location: Indian Hills
(32.9760°N, 85.9450°W)
Time: 01:06:19
(UTC+00:00)

CZ-4 R/B - Pass Details

Date: 09 December 2019
Orbit: 579 x 590 km, 97.8° (Epoch: 20 January)

Event Time Altitude Azimuth Distance (km) Brightness Sun altitude
Rises 23:59:13 0° 163° (SSE) 2,802 7.9 -16.8°
Reaches altitude 10° 00:01:22 10° 161° (SSE) 1,907 7.0 -17.3°
Maximum altitude 00:05:29 74° 77° (ENE) 616 4.3 -18.1°
Drops below altitude 10° 00:09:39 10° 352° (N) 1,922 7.0 -18.9°
Sets 00:11:49 0° 351° (N) 2,827 7.9 -19.4°
